Location: Piotrkow Trybunalski
(51.4000°N, 19.6830°E)
Time: 08:01:08
(UTC+01:00)

Envisat - Visible Passes

Search period start: 06 December 2022 00:00
Search period end: 16 December 2022 00:00
Orbit: 763 x 765 km, 98.2° (Epoch: 05 December)

Date Brightness Start Highest point End Pass type
(mag) Time Alt. Az. Time Alt. Az. Time Alt. Az.
06 Dec 5.1 03:28:42 10° NNE 03:30:37 22° NE 03:30:37 22° NE visible
06 Dec 4.1 05:07:54 10° N 05:10:48 27° NNW 05:10:48 27° NNW visible
06 Dec 5.9 16:30:10 10° WSW 16:33:05 15° W 16:35:59 10° NW visible
07 Dec 5.8 02:52:20 10° NE 02:53:03 13° NE 02:53:03 13° NE visible
07 Dec 4.2 04:30:37 10° N 04:33:13 30° N 04:33:13 30° N visible
07 Dec 4.7 06:11:25 10° NNW 06:13:24 13° NW 06:13:24 13° NW visible
08 Dec 4.7 03:53:36 10° NNE 03:55:39 24° NNE 03:55:39 24° NNE visible
08 Dec 4.4 05:33:19 10° N 05:35:50 20° NW 05:35:50 20° NW visible
09 Dec 5.4 03:16:53 10° NNE 03:18:05 16° NE 03:18:05 16° NE visible
09 Dec 4.3 04:55:50 10° N 04:58:16 26° NNW 04:58:16 26° NNW visible
09 Dec 5.7 16:17:25 10° SW 16:20:57 19° W 16:24:30 10° NW visible
10 Dec 4.5 04:18:37 10° NNE 04:20:43 25° N 04:20:43 25° N visible
10 Dec 4.6 05:58:59 10° NNW 06:00:53 15° NW 06:00:53 15° NW visible
11 Dec 5.1 03:41:41 10° NNE 03:43:10 19° NNE 03:43:10 19° NNE visible
11 Dec 4.4 05:21:10 10° N 05:23:20 21° NNW 05:23:20 21° NNW visible
11 Dec 6.1 16:44:41 10° WSW 16:46:22 11° W 16:48:02 10° WNW visible
12 Dec 5.7 03:05:06 10° NE 03:05:38 12° NE 03:05:38 12° NE visible
12 Dec 4.5 04:43:46 10° N 04:45:48 24° N 04:45:48 24° N visible
12 Dec 4.9 06:25:28 10° NW 06:25:59 10° NW 06:25:59 10° NW visible
12 Dec 5.6 16:04:51 10° SW 16:08:51 23° W 16:12:52 10° NW visible
13 Dec 4.9 04:06:38 10° NNE 04:08:16 21° NNE 04:08:16 21° NNE visible
13 Dec 4.6 05:46:41 10° NNW 05:48:27 16° NNW 05:48:27 16° NNW visible
14 Dec 5.4 03:29:48 10° NNE 03:30:44 15° NNE 03:30:44 15° NNE visible
14 Dec 4.5 05:09:03 10° N 05:10:55 20° NNW 05:10:55 20° NNW visible
14 Dec 5.9 16:31:27 10° WSW 16:34:12 15° W 16:36:59 10° NW visible
15 Dec 4.7 04:31:44 10° N 04:33:23 21° N 04:33:23 21° N visible
15 Dec 4.9 06:12:37 10° NNW 06:13:34 12° NW 06:13:34 12° NW visible
